Starlink 11550

operational
NORAD ID: 63052 Int'l Des: 2025-035 Owner: SPXS Country: US Constellation: starlink
LEOCIRCULAR

About Starlink 11550

Description loading...

Live Position

Loading 3D Globe...

Upcoming Passes

Altitude History

Altitude vs Time

uPlot chart will show altitude changes over time

Two-Line Element Set

1 63052U 25035A 26033.97573516 .00206200 00000-0 15673-2 0 9992
2 63052 42.9987 224.3759 0001731 278.4518 81.6154 15.70895113 55764
Epoch: Feb 2, 2026 • Age: 14 hours

Current Status

Altitude 357.4 km
Velocity 7.70 km/s
Sub-Earth Point 32.45°N, 70.69°W
Launch Date Feb 21, 2025
Age 0.9 years
Type internet

Technical Details

Classification Payload
Mass 960.00 kg
Dry Mass 910.00 kg
Total Mass 960.00 kg
Length 0.30 m
Diameter 4.10 m
Span 29.00 m
Shape Box + pan
Manufacturer SPXS
Bus Type Starlink V2MD
Phase Status In Orbit
Owner/State SPXS/US

Large Constellations

Loading constellations...